AO-07 1 07530U 74089B 15049.88841601 -.00000019 00000-0 15077-3 0 9992 2 07530 101.5078 028.8899 0011995 172.0960 241.6181 12.53611789842430 FO-29 1 24278U 96046B 15049.55192366 -.00000001 00000-0 34248-4 0 9991 2 24278 098.5276 034.4673 0350624 018.6342 094.1596 13.53044690913982 SO-33 1 25509U 98061B 15049.84054468 .00001176 00000-0 22023-3 0 9990 2 25509 031.4311 202.5159 0348160 115.8749 002.9185 14.29846724852475 RS-22 1 27939U 03042A 15050.33544192 .00001257 00000-0 23838-3 0 9993 2 27939 097.8256 217.5768 0013857 044.8244 315.4081 14.65807754608929 HO-68 1 36122U 09072B 15050.28227234 -.00000060 00000-0 -43517-4 0 9995 2 36122 100.2121 099.2130 0007613 032.2972 327.8609 13.16324007248948 AO-73 1 39444U 13066AE 15049.64193754 .00002454 00000-0 32363-3 0 9993 2 39444 097.7444 116.7096 0061258 161.0160 199.3355 14.79664225 65886 EO-79 1 40025U 14033R 15050.44868858 .00002564 00000-0 29526-3 0 9998 2 40025 097.9648 310.5162 0012181 206.0527 154.0058 14.86568782 36309 UO-11 1 14781U 84021B 15049.69923125 .00000775 00000-0 10374-3 0 9999 2 14781 097.8170 109.6201 0010094 099.3575 260.8780 14.82170387664475 AO-16 1 20439U 90005D 15049.81864343 .00000185 00000-0 84376-4 0 9994 2 20439 098.5320 347.8152 0011676 146.1071 272.2551 14.32491338309798 LO-19 1 20442U 90005G 15050.10834314 .00000145 00000-0 69291-4 0 9992 2 20442 098.5032 348.0130 0012798 134.8383 225.3843 14.32687130310036 AO-27 1 22825U 93061C 15049.39529288 .00000187 00000-0 90105-4 0 9998 2 22825 098.6957 359.5670 0007364 299.1187 175.5474 14.29836442115965 IO-26 1 22826U 93061D 15049.38576366 .00000211 00000-0 98632-4 0 9998 2 22826 098.6898 359.7405 0007827 290.0125 070.0214 14.30148565116106 GO-32 1 25397U 98043D 15049.39884355 .00000092 00000-0 58953-4 0 9999 2 25397 098.5062 003.6596 0000678 020.4940 091.1218 14.23517972862893 NO-44 1 26931U 01043C 15049.62583920 .00000116 00000-0 76725-4 0 9992 2 26931 067.0515 122.9086 0006780 267.8717 092.1608 14.30260291698843 SO-50 1 27607U 02058C 15049.55969002 .00001021 00000-0 16750-3 0 9998 2 27607 064.5560 200.9399 0074640 312.1898 047.2882 14.74458324653798 CO-55 1 27844U 03031E 15049.49075374 .00000317 00000-0 16414-3 0 9990 2 27844 098.6977 059.7086 0008581 283.8972 229.9114 14.21716534603572 CO-57 1 27848U 03031J 15050.23735161 .00000225 00000-0 12289-3 0 9999 2 27848 098.7074 060.2897 0008490 289.5970 130.1718 14.21375685603595 AO-51 1 28375U 04025K 15049.41744800 .00000390 00000-0 12854-3 0 9998 2 28375 098.2819 353.3533 0081979 329.0264 030.6105 14.41587676559372 CP3 1 31129U 07012N 15049.90155029 .00001522 00000-0 33901-3 0 9995 2 31129 097.9673 020.9155 0096194 323.0630 088.9731 14.55497459415916 CO-65 1 32785U 08021C 15050.05728701 .00002003 00000-0 23244-3 0 9990 2 32785 097.6645 097.9089 0015050 097.1885 323.0097 14.86395830368687 PRISM 1 33493U 09002B 15050.45396833 .00004898 00000-0 48672-3 0 9994 2 33493 098.2527 242.1770 0017082 358.8327 001.2844 14.92102222329013 SOHLA-1 1 33496U 09002E 15049.91633521 .00000597 00000-0 10519-3 0 9995 2 33496 098.1945 176.9328 0006853 169.5597 303.0387 14.71201360325787 TISAT-1 1 36799U 10035E 15050.27225420 .00004020 00000-0 44767-3 0 9995 2 36799 098.0131 149.3887 0012488 230.0051 188.4334 14.87624881249423 STUDSAT 1 36801U 10035G 15050.26657578 .00024901 00000-0 16901-2 0 9999 2 36801 098.0526 163.7679 0006381 183.6954 206.6779 15.06379109250187 ALMASAT-1 1 38078U 12006B 15049.40782225 .00036517 32595-5 69675-3 0 9991 2 38078 069.4582 177.8395 0516630 060.7581 304.4192 14.68555085157531 XATCOBEO 1 38082U 12006F 14243.34478676 .13583328 43697-5 37939-3 0 9990 2 38082 069.3815 097.0364 0033293 225.1799 135.4582 16.41261006136239 CUBEBUG-1 1 39153U 13018D 15050.16542453 .00001531 00000-0 21522-3 0 9990 2 39153 098.0225 134.8826 0016219 274.1015 085.8342 14.78775591 98034 ESTCUBE-1 1 39161U 13021C 15050.32021280 .00001453 00000-0 24593-3 0 9995 2 39161 098.0778 134.2791 0009353 336.3737 023.7039 14.70816950 95919 DUCHIFAT-1 1 40021U 14033M 15050.39960150 .00003523 00000-0 39734-3 0 9994 2 40021 097.9637 310.6327 0013180 206.8653 153.1879 14.87177624 36296 NANOSATCBR1 1 40024U 14033Q 15050.29345159 .00003185 00000-0 36254-3 0 9990 2 40024 097.9620 310.4068 0012054 206.1108 153.9520 14.86871434 36276 DTUSAT-2 1 40030U 14033W 15050.30894409 .00002635 00000-0 30615-3 0 9990 2 40030 097.9615 310.2014 0012036 198.6104 161.4665 14.86177441 36278 ANTELSAT 1 40034U 14033AA 15050.41705627 .00001762 00000-0 27890-3 0 9990 2 40034 097.9589 304.9951 0061119 136.0175 224.5899 14.72258763 35969 MET-2/21 1 22782U 93055A 15049.93027312 .00000110 00000-0 86094-4 0 9992 2 22782 082.5527 337.5130 0021017 293.9925 134.5104 13.83762804 84242 OKEAN-4 1 23317U 94066A 15049.90066253 .00001470 00000-0 16365-3 0 9997 2 23317 082.5394 196.4954 0019891 005.5193 108.5890 14.86335713 99749 NOAA-14 1 23455U 94089A 15050.46673078 -.00000009 00000-0 17981-4 0 9991 2 23455 098.7580 134.3137 0010189 060.7737 067.5248 14.14023768 38895 NOAA-15 1 25338U 98030A 15050.87665554 .00000257 00000-0 10840-3 0 9998 2 25338 098.7687 049.4648 0011155 144.2567 215.9833 14.25567980872134 RESURS 1 25394U 98043A 15049.92405491 .00000046 00000-0 38003-4 0 9998 2 25394 098.4510 009.3690 0000473 205.3999 223.7443 14.24442244863441 FENGYUN1 1 25730U 99025A 15049.52998781 .00000992 00000-0 55506-3 0 9994 2 25730 098.9347 014.5229 0020104 125.6636 011.0979 14.13003202812293 OKEAN-0 1 25860U 99039A 15050.36791508 .00000800 00000-0 12418-3 0 9998 2 25860 098.0803 018.3416 0001241 083.2964 036.4062 14.75822442838609 NOAA-16 1 26536U 00055A 15050.83959374 .00000105 00000-0 56435-4 0 9994 2 26536 098.9571 116.8581 0010193 199.4814 160.6455 14.13076852743089 NOAA-17 1 27453U 02032A 15050.52751883 .00000081 00000-0 52235-4 0 9998 2 27453 098.3321 042.4082 0012295 163.3264 196.8323 14.24853962657906 NOAA-18 1 28654U 05018A 15050.54054435 .00000190 00000-0 12904-3 0 9999 2 28654 099.1770 040.3666 0013321 291.3949 174.7625 14.12151258502472 NOAA-19 1 33591U 09005A 15050.55339067 .00000292 00000-0 18413-3 0 9997 2 33591 098.9774 000.2395 0014816 139.0754 339.2912 14.11875641310893 HUBBLE 1 20580U 90037B 15049.91929047 .00002473 00000-0 15023-3 0 9994 2 20580 028.4690 213.6934 0003336 049.8834 084.4844 15.06845648161956 ISS 1 25544U 98067A 15050.77564126 .00022657 00000-0 33714-3 0 9992 2 25544 051.6484 310.4179 0005775 026.7201 077.4815 15.55028906929763 CO-58 1 28895U 05043F 15049.77601986 .00000981 00000-0 20197-3 0 9997 2 28895 097.8224 243.7392 0016069 313.8375 046.1498 14.62512604496280 FALCON 1 30776U 07006E 15049.35292032 .00014212 00000-0 61608-3 0 9995 2 30776 035.4296 024.5966 0003809 278.6890 206.7924 15.21594113438171 MAST 1 31126U 07012K 15049.93027453 .00000938 00000-0 21289-3 0 9990 2 31126 097.9473 023.4473 0089937 305.1295 115.6422 14.55835838416280 CAPE1 1 31130U 07012P 15049.85956842 .00001414 00000-0 31751-3 0 9994 2 31130 097.9690 020.3807 0096739 324.8684 034.6159 14.55194802415679 COMPASS 1 32787U 08021E 15049.43503422 .00003026 00000-0 31998-3 0 9994 2 32787 097.6675 100.7232 0014784 088.6311 271.6600 14.89850116368827 AAUSAT2 1 32788U 08021F 15050.11238988 .00003444 00000-0 35509-3 0 9990 2 32788 097.6679 102.7015 0014087 084.2297 276.0527 14.90793418369005 DO-64 1 32789U 08021G 15049.42595089 .00009692 00000-0 82933-3 0 9995 2 32789 097.6878 111.2635 0011725 066.4164 358.4761 14.97748031369295 CO-66 1 32791U 08021J 15049.84283150 .00002400 00000-0 26607-3 0 9993 2 32791 097.6664 099.3046 0015496 092.4659 267.8332 14.88098307368717 RS-30 1 32953U 08025A 15050.32385386 .00000010 00000-0 -13620-7 0 9997 2 32953 082.5014 047.5350 0018411 340.1549 019.8815 12.43056737305962 METEOR-M 1 35865U 09049A 15050.21009040 .00000132 00000-0 78859-4 0 9993 2 35865 098.5164 094.6920 0003134 094.2546 265.8990 14.21992249281444 RS-38 1 35869U 09049E 15050.19550980 .00000065 00000-0 48195-4 0 9993 2 35869 098.5093 094.3661 0005302 093.9660 266.2122 14.22271953281489 JUGNU 1 37839U 11058B 15049.83007771 .00000485 00000-0 11673-3 0 9995 2 37839 019.9606 199.9849 0018823 182.1776 326.3759 14.12423026173467 SRMSAT 1 37841U 11058D 15049.88932127 .00000432 00000-0 93168-4 0 9997 2 37841 019.9709 223.9229 0011796 112.5806 039.4716 14.10443009173238 RAX-2 1 37853U 11061D 15050.36955328 .00007348 00000-0 46553-3 0 9995 2 37853 101.7090 203.7138 0201721 059.5366 358.1571 14.94197288179502 AUBIESAT 1 37854U 11061E 15049.97781451 .00007244 00000-0 44155-3 0 9996 2 37854 101.7145 206.0024 0197515 056.1781 060.3104 14.96083071179536 HRBE 1 37855U 11061F 15050.41535485 .00007307 00000-0 45299-3 0 9992 2 37855 101.7144 205.5587 0200731 057.0597 304.9738 14.95070620179540 RS-39 1 38051U 11062C 14288.65876392 .70201582 12497-4 27925-2 0 9995 2 38051 051.5964 324.1908 0006422 269.6897 186.8903 16.43533377153081 E-STAR 1 38079U 12006C 15016.13455217 .17990388 48979-5 52837-3 0 9992 2 38079 069.3967 125.0648 0013168 047.0341 316.5109 16.44007688156194 GOLIAT 1 38085U 12006J 15047.13271005 .15174231 50628-5 38163-3 0 9993 2 38085 069.4022 049.8202 0017770 344.8867 016.3100 16.44194733160691 HORYU-2 1 38340U 12025D 15049.39320411 .00002307 00000-0 36062-3 0 9992 2 38340 098.3000 016.4054 0013468 112.4182 247.8453 14.73763946148030 RS-40 1 38735U 12041C 15050.31432770 .00000040 00000-0 21992-3 0 9992 2 38735 082.4788 133.4819 0017594 079.8194 280.4869 12.42567449116276 PROITERES 1 38756U 12047B 15050.48986184 .00001035 00000-0 15967-3 0 9992 2 38756 098.2185 147.8333 0011603 318.4162 041.6160 14.75563379131642 BEESAT-3 1 39134U 13015E 15050.08801882 .00008539 00000-0 52762-3 0 9996 2 39134 064.8729 074.7688 0034587 269.1275 090.5885 15.09935754100854 BEESAT-2 1 39136U 13015G 15050.22776236 .00007957 00000-0 50952-3 0 9990 2 39136 064.8735 075.8642 0035175 268.9547 090.7545 15.08673160100852 LO-75 1 39382U 13064C 14295.69194059 .07301741 00000-0 36367-2 0 9993 2 39382 040.4713 030.2705 0002289 341.7175 018.4586 16.19795749470823 ZACUBE-1 1 39417U 13066B 15049.63916167 .00002038 00000-0 27251-3 0 9991 2 39417 097.7441 116.5571 0061764 161.5105 198.8372 14.79234569 67109 TRITON-1 1 39427U 13066M 15049.41829332 .00001625 00000-0 27448-3 0 9994 2 39427 097.7308 107.0881 0116908 185.5490 174.4428 14.66272905 66467 DELFIN3XT 1 39428U 13066N 15049.44804528 .00002881 00000-0 48975-3 0 9991 2 39428 097.7310 105.6603 0125825 189.5889 170.2912 14.64748577 66352 GOMX-1 1 39430U 13066Q 15050.36768579 .00001617 00000-0 31007-3 0 9996 2 39430 097.7248 101.9144 0154150 200.4626 159.0356 14.57684664 66219 MO-76 1 39436U 13066W 15049.75035347 .00023659 00000-0 18714-2 0 9992 2 39436 097.7526 125.7028 0023338 143.6337 216.6477 15.00407132 67698 LO-74 1 39440U 13066AA 15050.11084032 .00001559 00000-0 23130-3 0 9998 2 39440 097.7392 113.3385 0083349 168.4514 191.8633 14.74091353 66931 PUCPSAT-1 1 39442U 13066AC 15049.48369795 .00003200 00000-0 35239-3 0 9998 2 39442 097.7521 122.2172 0034450 153.0522 207.2493 14.87825947 66213 SHINAISAT 1 39572U 14009A 14328.13084988 .28848087 76253-5 66603-3 0 9996 2 39572 064.9728 197.0096 0013534 259.7861 100.1802 16.45181032 42403 TEIKYOSAT 1 39576U 14009E 14297.85867254 .09345816 76764-5 25176-3 0 9997 2 39576 064.9818 300.5833 0008491 317.3597 044.3862 16.45008906 37698 CO-77 1 39577U 14009F 14244.78324653 .10543803 76292-5 32273-3 0 9993 2 39577 064.9920 123.7668 0014904 269.7208 091.1897 16.43552757 29380 SPROUT 1 39770U 14029E 15050.09011176 .00001528 00000-0 19243-3 0 9996 2 39770 097.8681 148.5801 0009172 223.0258 137.0274 14.83440267 40125 POPSAT-HIP1 1 40028U 14033U 15050.40806555 .00002489 00000-0 28791-3 0 9992 2 40028 097.9672 310.5254 0013609 204.0463 156.0124 14.86410645 36281 EO-80 1 40032U 14033Y 15050.31339337 .00002428 00000-0 28288-3 0 9990 2 40032 097.9619 310.2174 0012066 198.8774 161.1977 14.86143473 36270 VELOX-1 1 40057U 14034E 15050.41269163 .00002484 00000-0 37484-3 0 9998 2 40057 098.2262 126.5875 0010548 254.0695 105.9346 14.75227226 34519 DAURIA DX 1 1 40071U 14037C 15050.44244876 .00001155 00000-0 15985-3 0 9990 2 40071 098.3708 116.9613 0007677 257.3061 102.7298 14.80103489 33370 UKUBE-1 1 40074U 14037F 15050.47501630 .00002469 00000-0 32158-3 0 9990 2 40074 098.3718 117.4346 0003890 264.8131 095.2647 14.81585875 33409 CHASQUI-1 1 40117U 98067ET 15014.73322295 .07508583 12315-4 10026-2 0 9990 2 40117 051.6189 112.4445 0004239 337.2783 022.7551 16.34635278 23368 HODOYOSHI-1 1 40299U 14070B 15050.48088193 .00004751 00000-0 23530-3 0 9991 2 40299 097.4634 133.5222 0013241 178.7125 276.3461 15.18178327 15951 CHUBUSAT-1 1 40300U 14070C 15050.48382209 .00006382 00000-0 33111-3 0 9997 2 40300 097.4615 133.1699 0022825 180.4985 234.8171 15.16263642 15937 QSAT-EOS 1 40301U 14070D 15050.75902856 .00018088 00000-0 96741-3 0 9998 2 40301 097.4598 133.0521 0033813 180.5784 179.5928 15.14582609 15950 TSUBAME 1 40302U 14070E 15050.35852917 .00006610 00000-0 38449-3 0 9996 2 40302 097.4557 132.2127 0044293 183.5252 264.5004 15.11548906 15865 FIREBIRD FU3 1 40377U 15003B 15050.46238826 .00012601 00000-0 66292-3 0 9998 2 40377 099.1226 062.3561 0164727 278.2529 080.0053 15.04807584 2838 FIREBIRD FU4 1 40378U 15003C 15050.46201779 .00012377 00000-0 65027-3 0 9991 2 40378 099.1227 062.3566 0164912 278.2953 079.9622 15.04835749 2835 GRIFEX 1 40379U 15003D 15049.99827657 .00010359 00000-0 54935-3 0 9991 2 40379 099.1263 061.8066 0164559 280.8031 077.4762 15.04636137 2768 /EX
